SIT-2086

Last updated on Wed Sep 09 2026 00:03:15 GMT+0000 (Coordinated Universal Time)

1 61764U 24199AF 26251.47716779 .00052363 00000+0 66875-3 0 9996 2 61764 97.2780 129.4569 0003982 336.0896 24.0175 15.59098634147384
UTC large
Height (km)
Speed (km/s)
/
Latitude / Longitude
Inclination (degrees)
Orbital Period (minutes)
Azimuth
Elevation
Range (km)
Doppler Factor

Next 0 passes for location: London (51.5072 / 0.1276)

No passes found over London.
SIT-2086